Regional Weather Roundup
Issued by NWS

Home | Current Version | Previous Version | Graphics & Text | Print | Product List | Glossary On
Versions: 1 2 3 4 5 6 7 8 9 10 11 12 13 14 15 16 17 18 19 20 21 22 23 24 25 26 27 28 29 30 31 32 33 34 35 36 37 38 39 40 41 42 43 44 45 46 47 48 49 50
000
ASUS43 KFSD 301410
RWRSD

WEATHER ROUNDUP FOR SOUTH DAKOTA
NATIONAL WEATHER SERVICE SIOUX FALLS SD
900 AM CDT SAT APR 30 2016

NOTE: "FAIR" INDICATES FEW OR NO CLOUDS BELOW 12,000 FEET WITH NO
SIGNIFICANT WEATHER AND/OR OBSTRUCTIONS TO VISIBILITY.


SDZ001>005-009-010-012>017-301500-
NORTHWEST AND NORTH CENTRAL SOUTH DAKOTA

CITY           SKY/WX    TMP DP  RH WIND       PRES   REMARKS
BUFFALO          N/A     42  35  76 NE13      30.06R
FAITH            N/A     44  38  79 N10       30.09R
MOBRIDGE       CLOUDY    47  39  74 NE13      30.10R
$$

SDZ012>016-024>037-041>051-057-063-072>074-301500-
SOUTHWEST AND SOUTH CENTRAL SOUTH DAKOTA

CITY           SKY/WX    TMP DP  RH WIND       PRES   REMARKS
RAPID CTY ARPT CLOUDY    40  37  89 N14       30.07R
PIERRE         CLOUDY    45  39  79 NE17      30.03R
CUSTER         CLOUDY    32  28  85 NE16G28   30.00R WCI  21
ELLSWORTH AFB  CLOUDY    40  40 100 N12       30.07
PHILIP         CLOUDY    44  38  79 NE15G25   30.05R
PINE RIDGE     LGT RAIN  38  35  89 N16G24    29.98S FOG
WINNER         CLOUDY    43  38  82 NE20      29.96S
$$

SDZ004>011-016>023-039-040-301500-
NORTHEAST SOUTH DAKOTA

CITY           SKY/WX    TMP DP  RH WIND       PRES   REMARKS
ABERDEEN       MOSUNNY   45  35  68 NE15      30.10S
WATERTOWN      CLOUDY    41  32  70 E17G28    30.02S
BROOKINGS      CLOUDY    40  34  79 NE15G23   29.98R
SISSETON         N/A     46  33  60 E22       30.10S
$$

SDZ017-020-022-023-036>040-048>070-301500-
SOUTHEAST SOUTH DAKOTA

CITY           SKY/WX    TMP DP  RH WIND       PRES   REMARKS
SIOUX FALLS    CLOUDY    45  38  76 NE20      29.92F
HURON          CLOUDY    45  40  82 NE14      30.02R
CHAMBERLAIN    CLOUDY    45  41  85 NE13      29.99S
MITCHELL       CLOUDY    46  40  79 NE17      29.98S
YANKTON        CLOUDY    43  39  87 NE16      29.88R
$$

ABBREVIATIONS USED IN REMARKS
   TC - TEMPERATURE IN CELSIUS
  WCI - WIND CHILL INDEX
   HX - HEAT INDEX
  VSB - VISIBILITY




USA.gov is the U.S. government's official web portal to all federal, state and local government web resources and services.